Regional Weather Roundup
Issued by NWS

Home | Current Version | Previous Version | Graphics & Text | Print | Product List | Glossary On
Versions: 1 2 3 4 5 6 7 8 9 10 11 12 13 14 15 16 17 18 19 20 21 22 23 24 25 26 27 28 29 30 31 32 33 34 35 36 37 38 39 40 41 42 43 44 45 46 47 48 49 50
000
ASUS43 KLMK 071802
RWRKY
KENTUCKY REGIONAL WEATHER ROUNDUP
NATIONAL WEATHER SERVICE LOUISVILLE KY
100 PM EST WED DEC 07 2016

NOTE "FAIR" INDICATES FEW OR NO CLOUDS BELOW 12,000 FEET
WITH NO SIGNIFICANT WEATHER AND/OR OBSTRUCTIONS TO VISIBILITY.

KYZ001>023-026-027-061>063-070>075-071900-
WESTERN AND SOUTH CENTRAL KENTUCKY

CITY           SKY/WX    TMP DP  RH WIND       PRES   REMARKS
PADUCAH        SUNNY     43  21  41 VRB3      30.20F
HENDERSON      MOSUNNY   39  19  45 NE5       30.20S
OWENSBORO      MOSUNNY   41  24  51 CALM      30.19F
HOPKINSVILLE   SUNNY     44  29  57 VRB6      30.15F
BOWLING GREEN  MOSUNNY   46  31  55 N5        30.16F
GLASGOW        NOT AVBL
$$

KYZ024-025-028>034-038-045-046-053-071900-
NORTH CENTRAL KENTUCKY

CITY           SKY/WX    TMP DP  RH WIND       PRES   REMARKS
LOUISVILLE/SDF CLOUDY    42  21  43 CALM      30.16F
LOUISVILLE/LOU CLOUDY    41  23  48 CALM      30.17F
FORT KNOX      CLOUDY    41  26  56 E1        30.14F
$$

KYZ035>037-039>044-047>052-055>060-089>105-071900-
NORTHEAST KENTUCKY

CITY           SKY/WX    TMP DP  RH WIND       PRES   REMARKS
LEXINGTON      MOSUNNY   43  26  51 CALM      30.14F
COVINGTON      PTSUNNY   37  21  52 SW5       30.12F WCI  33
FRANKFORT      MOSUNNY   43  27  53 CALM      30.13F
$$

KYZ054-064>069-076>088-106>120-071900-
SOUTHEAST KENTUCKY

CITY           SKY/WX    TMP DP  RH WIND       PRES   REMARKS
JACKSON        SUNNY     45  31  58 CALM      30.11F
LONDON         MOSUNNY   42  33  70 NE3       30.11F
SOMERSET       NOT AVBL
MIDDLESBORO    SUNNY     47  37  68 N7        30.09F
MONTICELLO     MOCLDY    44  35  70 N7G17     30.14F
$$





USA.gov is the U.S. government's official web portal to all federal, state and local government web resources and services.